Simultaneous Nadir Overpasses (SNOs) Predictions

Prediction of SNOs between LANDSAT-8 and METOP-B Satellite Orbit:

Table of predicted SNOs for the next 14.0 days since TLE Epoch: 1/20/2024
Index Date (LANDSAT-8) Time (LANDSAT-8) Lat,Lon (LANDSAT-8) SZA (LANDSAT-8 ) Date (METOP-B) Time (METOP-B) Lat,Lon (METOP-B) SZA (METOP-B ) Distance(km) Time Diff (sec)
1 01/21/2024 09:53:33 -81.27,-106.28 76.91 01/21/2024 09:52:33 -81.27,-106.25 76.93 0.67 60
2 01/21/2024 10:42:57 81.29, 61.82 103.15 01/21/2024 10:43:11 81.29, 61.79 103.15 0.74 14
3 01/24/2024 05:27:44 -81.29, -39.52 77.53 01/24/2024 05:27:00 -81.28, -39.69 77.57 3.03 44
4 01/24/2024 06:17:10 81.29, 128.18 102.47 01/24/2024 06:17:39 81.29, 128.31 102.50 2.29 29
5 01/27/2024 01:01:56 -81.29, 26.97 78.23 01/27/2024 01:01:27 -81.29, 27.16 78.22 3.21 29
6 01/27/2024 01:51:22 81.29,-165.36 101.77 01/27/2024 01:52:07 81.29,-165.26 101.80 1.65 45
7 01/29/2024 20:36:08 -81.28, 93.19 79.01 01/29/2024 20:35:56 -81.28, 93.14 79.01 0.92 12
8 01/29/2024 21:25:33 81.30, -98.78 101.04 01/29/2024 21:26:35 81.29, -98.93 101.05 2.55 62
9 02/01/2024 15:20:51 81.27, -8.12 100.20 02/01/2024 15:19:42 81.27, -8.03 100.19 1.76 69



Historial Predications of SNOs between LANDSAT-8 and METOP-B
